2019-089H (44859 NORAD) Tracking and Keplerian Element Data

This shows tracking and keplerian element data for the satellite.

Feedback or suggestion? Click here.




ElementValue
Catalog44859
Name2019-089H
Epoch Orbit1697
Epoch Day93.60783028
Epoch Year2020
RAAN187.2821
Inclination36.9715
Eccentricity0.0004763
Argument of Perigee154.1547
Mean Anonmoly205.9434
Mean Motion14.98351801
Decay Rate1.59E-06
L11 44859U 19089H 20093.60783028 .00000159 00000-0 19606-4 0 9996
L22 44859 36.9715 187.2821 0004763 154.1547 205.9434 14.98351801 16979

Live tracking and technical data element details for 2019-089H (NORAD 44859). 2019-089H can be tracked NOW for your location showing map with azimuth and elevation plus other details from your city location.

Track the satellite on the map from your city or location and see movement details for azimuth, elevation, latitude, longitude, range, height, and movement on the map or in text.







IsCatalogInMostPopularTable: catalog: 44859, numindb: 34
Update: records affected: 1



GetName: 44859 2019-089H

Hit Count: updated at: Sun, 05 Apr 2020 19:13:58 GMT